Vertical_Velocity
-2 -2 -0 -2 -1 -2 -1 -1 -2 -5 3 0 -7 2 -3 -0 0 -11 -4 30 9 -4 -7 0 2 5 -4 -0 5 -4 -8 7 10 -4 6 1 9 -0 1 -7 -4 -0 2 -3 -1
-2 -3 -2 -1 -1 -1 -0 -0 1 -3 -1 5 -3 1 4 -0 2 5 10 -6 -4 2 4 4 5 22 4 -3 -1 -1 4 10 10 -1 1 -5 2 -6 -3 -3 -4 -2 -1 0 1
-1 0 -2 -1 -1 -1 -1 0 -0 1 -3 6 0 -0 3 6 5 -4 -8 -3 -1 5 -5 -12 -6 -13 26 1 -4 1 3 15 20 7 -2 -2 -5 -4 -0 -0 -7 1 -2 -0 0
1 -1 1 -0 -2 1 -0 0 1 1 0 -2 4 -3 -2 -1 1 2 3 2 2 -0 -4 -3 -4 -3 7 1 8 -4 1 3 13 8 2 -5 -4 2 6 1 -4 -7 0 -1 1
-0 1 2 -0 -0 1 1 -0 -0 2 0 -2 1 3 -2 -2 -4 3 1 3 3 1 7 9 4 1 -3 4 0 4 11 -12 4 6 7 -8 -1 -1 0 2 -1 3 -3 -1 -2
-0 -2 -1 2 1 -2 -1 2 -0 -0 4 1 -2 2 4 -4 9 -1 2 3 -0 -1 1 11 11 10 -6 -3 -13 7 7 -8 -5 2 -1 -2 12 -14 11 -7 -8 -5 -2 -1 -7
2 0 -1 1 -0 0 1 0 3 -2 3 3 1 -0 4 -1 -3 0 -1 2 -0 5 5 -1 8 3 5 5 1 0 -2 -17 -11 2 1 -2 -4 -3 10 -3 7 -2 -2 -1 -0
4 1 -3 -1 -1 -0 0 1 -0 3 -1 1 3 1 -2 9 4 1 2 3 4 7 -0 -9 -2 -1 3 -7 -6 -1 3 -2 9 1 6 -8 8 6 3 -8 -2 0 -1 -4 -4
0 2 3 -2 1 2 -1 2 -2 0 0 1 1 0 6 -2 2 1 1 0 1 -1 -7 -1 2 2 1 3 3 1 4 4 2 5 -2 -3 6 0 -4 -3 0 -0 1 3 2
0 -2 1 0 -2 1 2 1 -0 -1 2 0 -0 2 3 -2 -0 -1 -0 2 -5 -5 -1 -3 -1 6 3 -4 6 13 11 5 1 -0 -5 -4 6 4 -0 -6 1 5 0 1 -3
-0 3 -1 4 1 -2 0 1 -0 3 3 -1 2 -1 4 2 3 4 3 -2 -1 -1 -0 1 -1 10 13 7 3 -0 -2 1 6 0 -6 -1 -1 1 4 -0 -0 4 3 -0 2
-0 -3 0 0 1 2 1 -0 -1 5 3 2 2 2 3 3 1 1 -3 3 1 4 1 -2 3 8 -0 -1 -1 -5 -3 2 2 -0 -11 -4 1 -1 1 5 2 1 0 2 -4
-4 -3 0 -3 -1 3 2 0 -1 3 -2 -2 -1 -7 2 -0 -2 -1 1 2 4 0 3 6 19 4 -6 -3 -4 -2 -4 -1 7 -15 -12 -3 2 3 0 -4 -1 2 -0 -1 5
-0 1 2 0 2 4 1 4 0 0 -4 1 2 8 -1 4 1 0 -0 0 -1 5 2 1 -3 -2 3 3 -1 -2 3 2 3 -9 -5 -10 -11 -7 -5 2 -1 2 -2 -0 0
-3 -7 2 0 -1 3 1 3 0 2 -5 -5 -3 -1 0 2 5 5 1 -0 7 7 3 18 1 0 -3 9 -2 9 0 4 -2 -2 -6 -2 -14 17 -2 5 4 -1 0 2 -1
1 -6 13 -7 -1 10 2 3 2 1 1 -0 2 0 -2 15 2 -2 -0 -1 -2 -0 3 -3 -2 1 6 5 3 3 3 4 4 3 -18 17 -9 8 6 4 1 -1 -5 -2 -3
7 1 13 6 -3 6 6 3 -2 -0 -1 1 4 3 3 -0 7 10 8 -1 2 -0 1 -1 2 0 2 -1 -2 2 3 -0 -4 -8 3 0 -12 17 3 -1 -0 5 -0 -3 -3
7 -1 10 6 6 4 6 2 -1 6 2 2 1 -2 3 2 -1 -2 -3 -1 -3 5 2 1 3 2 3 2 7 1 -1 -1 -0 -2 6 -6 -21 4 -1 -1 2 -1 0 -0 -0
12 1 7 -3 7 2 4 -1 10 5 3 5 0 -1 2 -1 0 3 3 3 1 2 -2 -5 -1 3 2 2 1 4 -6 7 0 -0 -2 -1 0 3 8 1 -6 -2 -1 -1 0
9 -2 5 3 1 -0 -1 1 2 5 -1 5 3 1 2 2 2 0 -2 0 0 1 1 2 -0 1 2 1 -1 -0 1 -3 -3 -5 -6 -3 -0 -1 0 -3 -1 -3 -1 -1 1
-0 0 4 3 -2 -3 -10 5 4 2 3 9 17 4 3 3 4 1 3 2 1 1 1 3 3 3 2 -1 0 -1 -0 -1 -0 -4 -6 -1 2 3 -1 4 1 -2 -3 -4 -4
3 6 9 4 -4 2 1 11 6 3 20 2 33 23 11 1 1 2 0 1 3 4 3 1 -0 -0 2 2 1 0 -1 0 -4 -2 -2 -0 3 -0 1 -0 0 -2 -4 -2 4
4 2 4 16 4 4 1 0 1 6 11 -1 19 16 -2 4 -0 3 1 0 -2 17 -1 4 -0 -0 1 1 1 -3 -1 -0 2 1 2 -7 7 4 -1 -2 -3 -5 -2 -2 0
2 -1 8 11 16 1 2 3 2 0 21 -7 -4 11 12 6 34 13 1 -1 2 -3 -0 13 11 2 0 -2 -0 -1 -0 -1 -5 -3 1 2 2 2 1 1 -3 -8 0 2 1
3 0 6 4 7 -1 4 2 6 3 0 12 31 11 -2 3 -2 -3 3 4 1 -1 -3 -1 -3 -3 -1 -1 -1 -1 -1 -6 -3 0 -8 7 -6 -0 -2 -3 -2 -1 -4 -4 -3
3 3 0 -0 9 7 6 3 4 3 2 -11 3 11 2 -1 -10 0 -2 -4 -1 2 2 -1 1 -1 -3 -1 -5 -5 -7 -6 -3 -1 -1 -5 5 -7 3 1 -1 -2 -4 -2 -1
4 3 3 7 4 39 18 -2 4 6 5 -6 -3 2 -1 1 5 0 -1 -2 -2 -1 -0 -0 -2 -2 -2 -7 -4 -1 -0 -1 -4 -5 -3 -3 -4 -2 0 -0 -0 -1 -1 0 0
Height
5749 5744 5740 5737 5733 5731 5729 5724 5720 5716 5709 5703 5700 5694 5696 5700 5705 5715 5730 5742 5747 5752 5762 5768 5776 5786 5790 5800 5806 5814 5820 5829 5836 5841 5846 5847 5850 5854 5856 5860 5864 5868 5872 5876 5878
5745 5740 5736 5732 5729 5726 5724 5721 5717 5713 5708 5704 5704 5700 5700 5703 5709 5719 5727 5735 5742 5750 5758 5765 5772 5779 5786 5792 5801 5805 5814 5824 5832 5835 5837 5840 5843 5845 5852 5854 5858 5862 5866 5870 5873
5742 5737 5732 5727 5725 5722 5719 5717 5713 5711 5709 5705 5705 5705 5705 5708 5714 5719 5727 5734 5740 5747 5753 5758 5764 5770 5780 5784 5795 5802 5810 5818 5823 5824 5827 5833 5837 5839 5844 5847 5852 5855 5858 5864 5869
5739 5733 5729 5724 5720 5718 5716 5713 5711 5708 5707 5706 5705 5708 5710 5712 5717 5718 5724 5731 5736 5743 5750 5754 5760 5767 5774 5781 5787 5796 5801 5805 5813 5817 5821 5826 5830 5834 5839 5843 5845 5850 5855 5860 5864
5734 5729 5725 5720 5716 5714 5712 5711 5708 5706 5705 5706 5705 5706 5709 5712 5714 5717 5722 5727 5733 5740 5746 5750 5757 5765 5771 5774 5778 5786 5793 5798 5804 5808 5816 5819 5826 5829 5834 5838 5840 5845 5848 5853 5858
5730 5724 5719 5715 5712 5709 5707 5706 5705 5704 5702 5703 5704 5705 5707 5710 5712 5717 5721 5725 5731 5736 5741 5744 5751 5758 5763 5769 5774 5781 5785 5792 5799 5805 5810 5814 5823 5824 5832 5830 5835 5839 5844 5845 5845
5725 5722 5717 5711 5707 5705 5702 5701 5701 5700 5700 5700 5702 5704 5705 5707 5711 5714 5719 5723 5728 5733 5737 5740 5744 5752 5759 5765 5769 5774 5782 5788 5793 5799 5803 5809 5817 5820 5826 5827 5834 5836 5836 5837 5839
5721 5715 5713 5708 5704 5699 5697 5696 5696 5697 5697 5697 5699 5701 5703 5706 5708 5711 5715 5720 5724 5729 5733 5735 5741 5745 5752 5758 5763 5768 5774 5781 5788 5791 5795 5799 5809 5814 5817 5822 5825 5826 5826 5827 5829
5715 5710 5707 5704 5700 5697 5693 5692 5691 5691 5693 5694 5695 5697 5700 5702 5704 5707 5711 5715 5719 5724 5729 5733 5738 5742 5747 5751 5756 5762 5770 5775 5782 5786 5791 5794 5799 5804 5807 5810 5813 5814 5816 5819 5821
5708 5705 5701 5699 5694 5692 5690 5688 5687 5687 5688 5690 5691 5694 5696 5698 5701 5704 5708 5711 5716 5721 5725 5729 5735 5740 5746 5749 5755 5759 5765 5771 5777 5781 5785 5788 5789 5796 5798 5799 5803 5807 5811 5815 5814
5702 5697 5693 5691 5688 5685 5685 5684 5683 5682 5683 5684 5687 5687 5690 5693 5696 5699 5704 5708 5712 5716 5721 5726 5732 5737 5742 5746 5750 5754 5759 5764 5769 5772 5775 5778 5780 5786 5792 5793 5796 5802 5807 5808 5809
5698 5693 5688 5684 5682 5679 5678 5677 5676 5676 5676 5676 5677 5681 5684 5687 5690 5693 5697 5703 5707 5712 5717 5723 5727 5732 5736 5739 5743 5746 5751 5757 5762 5766 5768 5772 5775 5777 5785 5788 5790 5794 5798 5801 5801
5688 5684 5680 5675 5675 5672 5670 5669 5669 5667 5666 5667 5670 5671 5677 5681 5683 5689 5693 5697 5701 5705 5710 5716 5723 5727 5731 5734 5737 5741 5746 5752 5757 5759 5761 5765 5769 5773 5777 5784 5784 5785 5788 5791 5795
5678 5675 5669 5666 5665 5664 5663 5662 5661 5660 5658 5661 5664 5666 5672 5674 5678 5681 5685 5690 5694 5699 5703 5707 5714 5718 5722 5725 5730 5734 5737 5742 5747 5752 5754 5758 5763 5766 5767 5771 5775 5777 5779 5781 5785
5667 5665 5659 5655 5654 5654 5655 5653 5652 5653 5652 5654 5653 5657 5662 5666 5671 5675 5679 5682 5688 5693 5697 5704 5707 5711 5715 5720 5723 5728 5730 5734 5739 5744 5746 5750 5751 5759 5760 5762 5764 5767 5770 5772 5776
5654 5650 5648 5643 5642 5644 5643 5644 5644 5646 5645 5646 5647 5650 5654 5658 5662 5665 5670 5675 5680 5683 5688 5694 5698 5703 5708 5712 5714 5720 5724 5727 5731 5734 5739 5742 5743 5749 5753 5755 5757 5758 5760 5762 5764
5637 5632 5632 5629 5628 5632 5634 5635 5636 5637 5639 5641 5642 5645 5648 5652 5656 5659 5664 5670 5673 5678 5683 5689 5692 5696 5701 5706 5708 5713 5716 5719 5723 5726 5732 5735 5737 5740 5742 5744 5747 5751 5752 5752 5754
5621 5617 5618 5618 5619 5621 5623 5626 5628 5631 5632 5634 5636 5638 5642 5646 5649 5652 5656 5662 5667 5672 5676 5681 5686 5689 5693 5698 5702 5705 5709 5713 5714 5718 5722 5724 5727 5730 5731 5736 5739 5741 5741 5742 5744
5605 5603 5607 5606 5610 5611 5614 5616 5622 5624 5626 5629 5630 5632 5636 5640 5644 5649 5653 5657 5661 5666 5671 5674 5678 5681 5684 5689 5694 5696 5701 5707 5707 5708 5711 5715 5719 5722 5724 5725 5728 5730 5731 5731 5733
5591 5591 5594 5597 5599 5602 5605 5611 5615 5618 5621 5624 5627 5629 5632 5636 5641 5646 5649 5652 5656 5662 5666 5669 5673 5675 5678 5682 5687 5691 5695 5698 5698 5699 5702 5706 5710 5715 5717 5716 5715 5718 5719 5719 5721
5576 5578 5583 5586 5590 5593 5598 5604 5608 5612 5615 5619 5621 5624 5628 5632 5638 5641 5646 5651 5656 5659 5662 5666 5669 5673 5675 5678 5681 5683 5685 5688 5691 5691 5693 5698 5703 5707 5707 5709 5708 5708 5708 5708 5708
5563 5566 5572 5575 5582 5586 5591 5598 5602 5606 5609 5612 5613 5616 5622 5629 5634 5639 5643 5649 5653 5657 5660 5663 5666 5669 5672 5674 5676 5678 5680 5683 5684 5688 5690 5691 5697 5698 5699 5699 5699 5699 5699 5698 5699
5552 5557 5563 5566 5571 5578 5584 5590 5594 5600 5603 5606 5610 5614 5618 5625 5630 5634 5638 5644 5648 5651 5654 5658 5662 5665 5667 5670 5672 5673 5675 5677 5680 5682 5682 5684 5688 5690 5690 5690 5689 5688 5688 5689 5691
5544 5548 5555 5558 5565 5571 5577 5584 5589 5594 5598 5602 5605 5607 5612 5618 5622 5628 5633 5637 5642 5646 5649 5652 5656 5658 5661 5663 5666 5667 5669 5671 5673 5674 5676 5677 5680 5681 5680 5680 5679 5679 5682 5682 5682
5536 5541 5547 5552 5558 5564 5572 5577 5583 5586 5589 5594 5598 5602 5605 5608 5614 5621 5627 5632 5636 5639 5642 5645 5649 5652 5654 5656 5659 5662 5664 5665 5666 5667 5668 5672 5671 5672 5672 5671 5672 5672 5672 5672 5672
5529 5534 5540 5547 5554 5559 5564 5571 5577 5582 5584 5588 5593 5595 5599 5603 5610 5617 5622 5625 5629 5633 5637 5640 5643 5645 5647 5650 5653 5655 5657 5658 5659 5660 5660 5661 5663 5662 5664 5663 5664 5664 5663 5663 5662
5524 5529 5537 5542 5545 5554 5558 5564 5570 5577 5583 5585 5588 5592 5594 5600 5607 5612 5616 5620 5625 5628 5631 5634 5636 5639 5642 5642 5644 5648 5650 5650 5651 5651 5651 5651 5651 5653 5652 5650 5650 5650 5650 5650 5650